Starlink 30865

operational
NORAD ID: 58226 Int'l Des: 2023-170 Owner: SPXS Country: US Constellation: starlink
LEOCIRCULAR

Starlink 30865について

説明を読み込み中...

リアルタイム位置

3D地球を読み込み中...

次回通過

高度履歴

Altitude vs Time

uPlot chart will show altitude changes over time

軌道要素

1 58226U 23170W 25303.68775743 .00000814 00000-0 75356-4 0 9999
2 58226 43.0029 171.2781 0001164 266.3552 93.7158 15.02531956110856
Epoch: Oct 30, 2025 • Age: 18 hours

現在のステータス

高度 562.1 km
速度 7.58 km/s
衛星直下点 -16.30°S, 160.86°E
打ち上げ日 Nov 4, 2023
運用期間 1.9 years
タイプ internet

技術仕様

分類 Payload
質量 730.00 kg
乾燥質量 700.00 kg
総質量 730.00 kg
長さ 0.30 m
直径 4.10 m
スパン 29.00 m
形状 Box + pan
製造者 SPXS
バスタイプ Starlink V2M
フェーズステータス In Orbit
所有者/国 SPXS/US

大規模コンステレーション

Loading constellations...